Flag for Germany Weather past 2 weeks in Neuruppin, Brandenburg, Germany

Now
37 °F

Overcast.


Feels Like: 35 °F
Forecast: 37 / 56 °F
Wind: 3 mph from Southwest

Location: Neuruppin

Current Time: Mar 7, 2015 at 6:19:20 AM

Latest Report: Mar 7, 2015 at 5:00 AM


Visibility: 4 mi

Pressure: 30.50 "Hg

Humidity: 92%

Dew point: 35 °F

Location of NeuruppinLocation

Historic Weather in Neuruppin — Graph

°F

Neuruppin temperature yesterday

Maximum temperature yesterday: 46 °F (at 5:00 PM)
Minimum temperature yesterday: 32 °F (at 1:00 AM)
Average temperature yesterday: 40 °F

Past Weeks' High & Low Weather Summary

 TemperatureHumidityPressure
High49 °F (Feb 21, 11:00 AM)99% (Feb 23, 1:00 PM)30.56 "Hg (Feb 23, 1:00 PM)
Low26 °F (Feb 26, 5:00 AM)50% (Feb 26, 2:00 PM)29.35 "Hg (Feb 21, 11:00 AM)
Average37 °F84%29.91 "Hg
* Reported Feb 20 5:00 AM — Mar 7 5:00 AM, Neuruppin, Weather by CustomWeather, © 2015

Note: Actual official high and low records may vary slightly from our data, if they occured in-between our weather recording intervals... More about our weather records

Advertising

Neuruppin weather history for previous 24 hours

 ConditionsComfort  
Time TempWeatherWind HumidityBarometerVisibility
5:00 AM
Sat, Mar 7
37 °FOvercast.3 mph92%30.50 "Hg4 mi
4:00 AM36 °FOvercast.2 mph92%30.50 "Hg4 mi
3:00 AM36 °FClear.3 mph93%30.52 "Hg4 mi
2:00 AM36 °FOvercast.2 mph95%30.53 "Hg3 mi
1:00 AM34 °FOvercast.1 mph95%30.54 "Hg3 mi
12:00 AM35 °FClear.1 mph92%30.53 "Hg3 mi
11:00 PM
Fri, Mar 6
38 °FClear.1 mph89%30.53 "Hg4 mi
9:00 PM43 °FOvercast.2 mph81%30.52 "Hg6 mi
8:00 PM44 °FOvercast.2 mph81%30.53 "Hg6 mi
7:00 PM44 °FOvercast.3 mph79%30.51 "Hg6 mi
6:00 PM45 °FOvercast.2 mph78%30.48 "Hg6 mi
5:00 PM46 °FOvercast.2 mph74%30.49 "Hg6 mi
3:00 PM46 °FOvercast.3 mph73%30.49 "Hg6 mi
2:00 PM46 °FOvercast.5 mph74%30.50 "Hg6 mi
1:00 PM44 °FOvercast.5 mph77%30.51 "Hg6 mi
12:00 PM43 °FOvercast.3 mph83%30.52 "Hg6 mi
11:00 AM41 °FOvercast.2 mph85%30.53 "Hg6 mi
10:00 AM40 °FOvercast.2 mph88%30.53 "Hg6 mi
9:00 AM39 °FOvercast.2 mph91%30.53 "Hg6 mi
8:00 AM37 °FOvercast.1 mph95%30.52 "Hg6 mi
7:00 AM36 °FOvercast.1 mph96%30.53 "Hg6 mi
6:00 AM35 °FOvercast.1 mph96%30.53 "Hg6 mi
Weather by CustomWeather, © 2015

See weather overviewHow to use our weather pages